Voltar ao catálogo

STARLINK-3219

AtivoComunicaçõesVLEO
NORAD 49724·PAYLOAD·🇺🇸 United States

Lançado Dec 2, 2021 de Cape Canaveral Space Force Station

Loading…

Próximas Passagens (próximas 24 horas)

TLE

AtualizadoSource: CelesTrak SupGP

Época: Sep 15, 2026, 01:50 UTC

1 49724C 21115A   26258.07687500  .00013907  00000+0  44730-3 0  2580
2 49724  53.1602   5.0194 0001229  79.9256 251.1803 15.31690041    17

Acompanhe STARLINK-3219 em tempo real com AllMySat

Download on the App Store